Freddy Ramirez

Chefscout - Leones
10 Sep 2028
Sonntag
Verarbeitung

Persönlichkeit

Anpassungsfähigkeit (1) Ehrgeiz (7) Kontroverse (13) Loyalität (12) Druck (15) Professionalität (8) Fairness (11) Temperament (3)

Profil

Trainerstil Demokratisch
Lizenz Kontinentale C
Entschlossenheit 3
Menschenführung 5
Motivation 3
Disziplin 6
Arbeitszufriedenheit
100%
Ermüdung
0%
Rolle Chefscout
Gehalt 51.6K p/W
Vertrag 14.03.2029

Leistung

Verhalten Gut
Trainingseffektivität
38%
Spielerentwicklung
15%
Verletzungsprävention
50%
Taktische Umsetzung
25%

Letzte Ereignisse

Nahm an einer Scouting-Besprechung teil 7T her
Nahm an einer Scouting-Besprechung teil 14T her
Nahm an einer Scouting-Besprechung teil 21T her
Nahm an einer Scouting-Besprechung teil 28T her
Nahm an einer Scouting-Besprechung teil 35T her
Nahm an einer Scouting-Besprechung teil 42T her
Nahm an einer Scouting-Besprechung teil 49T her
Nahm an einer Scouting-Besprechung teil 56T her

Aktuell beobachtet

131
Spieler Verein Status Fähigkeit Vertrauen Beobachtet Zuletzt beobachtet Letzte Stimme
Tyler Walton Bromley Aktiv 97 / 97 40% 2 26.06.2028 -
Mezack Afriyie Aduana Stars Aktiv 101 / 100 40% 1 25.06.2028 -
Álvaro López Plaza Colonia Aktiv 110 / 114 40% 1 25.06.2028 -
Alessandro Bolzan Arzignano Aktiv 80 / 119 40% 2 24.06.2028 -
Nahuel Soria Oriental Aktiv 106 / 107 40% 1 24.06.2028 -
Walter Núñez Montevideo City Torque Aktiv 121 / 114 40% 1 23.06.2028 -
Nahuel da Silva Montevideo City Torque Aktiv 101 / 98 40% 1 23.06.2028 -
Salomon Ramirez Atletico Venezuela Aktiv 93 / 94 40% 1 22.06.2028 -
Maclyn Biokpo Jenewari Rivers United Aktiv 120 / 92 40% 1 22.06.2028 -
Jack Vale Sorrento Aktiv 89 / 116 40% 1 20.06.2028 -
Louis Flower Crawley Town Aktiv 83 / 96 40% 1 20.06.2028 -
Emiliano Saliadarre Miramar Misiones Aktiv 119 / 106 40% 1 19.06.2028 -
Tomás Blanco Estudiantes Aktiv 117 / 113 40% 1 19.06.2028 -
Alexander González Cerro Aktiv 98 / 107 40% 1 18.06.2028 -
Salvatore Longo Monopoli Aktiv 95 / 110 40% 1 16.06.2028 -
Lorenzo De Leo Renate Aktiv 106 / 104 40% 1 15.06.2028 -
Alan Cisnero Exeter City Aktiv 94 / 90 40% 1 13.06.2028 -
Enzo González Defensores Aktiv 103 / 101 40% 1 13.06.2028 -
Banou Cissé Real Bamako Aktiv 106 / 108 40% 1 12.06.2028 -
Tobías Dieni Ryazan Aktiv 92 / 93 40% 1 11.06.2028 -
Francisco Galván Deportivo Municipal Aktiv 115 / 105 40% 1 11.06.2028 -
Johnson Amuzu Medeama Aktiv 94 / 111 40% 1 10.06.2028 -
Gianluca Contini Siracusa Aktiv 109 / 95 40% 1 08.06.2028 -
Seb Palmer-Houlden Gillingham Aktiv 107 / 103 40% 1 08.06.2028 -
Andrew Dallas Sambenedettese Aktiv 104 / 88 40% 1 31.05.2028 -
Cristian Barros Cerro Aktiv 120 / 101 40% 2 27.12.2027 -
Lautaro Gordillo Colegiales Aktiv 103 / 104 40% 1 27.12.2027 -
Brayan Nazarith Bogota Aktiv 94 / 78 44% 1 28.12.2026 -
Alex Vigo Independiente Rivadavia Aktiv 122 / 109 40% 4 29.11.2026 -
Alonso Aceves Monterrey Aktiv 119 / 105 40% 1 29.11.2026 -
Ángel Zapata Tijuana Aktiv 97 / 106 40% 1 28.11.2026 -
Agustín Benítez Defensores Aktiv 109 / 110 40% 1 28.11.2026 -
Juan Ignacio Méndez Instituto Aktiv 127 / 127 40% 3 26.11.2026 -
Pedro Pedraza Pachuca Aktiv 126 / 110 40% 2 26.11.2026 -
Eneko Astigarraga Real Sociedad Aktiv 107 / 95 40% 1 25.11.2026 -
Rômulo Tigres Aktiv 119 / 114 40% 7 24.11.2026 -
Brian Farioli Estudiantes Aktiv 105 / 119 40% 1 23.11.2026 -
Sandi Zajc NK Domzale Aktiv 128 / 121 40% 1 22.11.2026 -
Alan Barrionuevo Tigre Aktiv 117 / 118 40% 2 20.11.2026 -
Santiago García Imotski Aktiv 93 / 81 40% 1 20.11.2026 -
Mauricio Guzmán Tristán Suárez Aktiv 120 / 123 40% 1 18.11.2026 -
Juan Sierra La Equidad Aktiv 114 / 135 40% 3 16.11.2026 -
Emiliano Álvarez Progreso Aktiv 115 / 118 40% 2 16.11.2026 -
Paolo Yrizar Chernomorets Aktiv 109 / 95 40% 1 16.11.2026 -
Ian Pérez Defensores Aktiv 110 / 105 40% 1 14.11.2026 -
Camilo Martinez Cortulua Aktiv 113 / 130 40% 2 13.11.2026 -
Gonzalo Pérez Lanús Aktiv 114 / 109 40% 3 10.11.2026 -
Nicolás Retamar Ferro Carril Oeste Aktiv 124 / 124 40% 1 10.11.2026 -
Damián Adín San Miguel Aktiv 109 / 116 40% 1 07.11.2026 -
Martín Garay Tigre Aktiv 124 / 107 40% 1 06.11.2026 -
Brian Orosco Godoy Cruz Aktiv 120 / 118 40% 2 05.11.2026 -
Renzo Reynaga Patronato Aktiv 123 / 117 40% 1 05.11.2026 -
Vicente Poggi Godoy Cruz Aktiv 122 / 116 40% 4 03.11.2026 -
Facundo Melillán Güemes Aktiv 106 / 110 40% 1 01.11.2026 -
Brian Calderara Chacarita Juniors Aktiv 122 / 115 40% 3 31.10.2026 -
Matías Machado Racing Aktiv 124 / 101 40% 1 31.10.2026 -
Pedro Ramírez Deportivo Riestra Aktiv 125 / 120 40% 2 30.10.2026 -
Alejo Tabares All Boys Aktiv 128 / 120 40% 2 29.10.2026 -
Elías Pereyra Barracas Central Aktiv 128 / 126 40% 1 29.10.2026 -
Ismael Cortez Gimnasia y Esgrima Aktiv 127 / 109 40% 1 28.10.2026 -
Gonzalo Mottes Chacarita Juniors Aktiv 113 / 105 40% 1 26.10.2026 -
Facundo Waller Huracán Aktiv 115 / 131 40% 1 26.10.2026 -
Daniel Amador Chiapas Aktiv 91 / 110 40% 1 26.10.2026 -
José Barreto Quilmes Aktiv 104 / 100 40% 1 25.10.2026 -
Blas Armoa Gimnasia y Esgrima Aktiv 108 / 121 40% 1 25.10.2026 -
Rodrigo López Pumas UNAM Aktiv 120 / 115 40% 1 23.10.2026 -
Nicolás Mosca Atlanta Aktiv 98 / 105 40% 1 23.10.2026 -
Facundo Miño Deportivo Riestra Aktiv 115 / 118 40% 2 22.10.2026 -
Luciano Cosentino Wanderers Aktiv 118 / 129 40% 1 20.10.2026 -
Milton Valenzuela Atlas Aktiv 117 / 106 40% 2 17.10.2026 -
Franco Malagueño Colegiales Aktiv 113 / 102 40% 1 17.10.2026 -
Facundo Ardiles Estudiantes Aktiv 110 / 120 40% 2 14.10.2026 -
Ricardo Echeverría Santos Laguna Aktiv 121 / 116 40% 1 13.10.2026 -
Agustín Gallo Tristán Suárez Aktiv 123 / 115 40% 1 13.10.2026 -
Ulises Sánchez Gimnasia y Esgrima Aktiv 122 / 135 40% 1 11.10.2026 -
Juan Velázquez Belgrano Aktiv 108 / 121 40% 1 11.10.2026 -
Alejandro Molina Tristán Suárez Aktiv 109 / 110 40% 1 08.10.2026 -
Santiago Martínez Godoy Cruz Aktiv 117 / 121 40% 1 07.10.2026 -
Esteban Obregón Montevideo City Torque Aktiv 116 / 128 40% 1 07.10.2026 -
Fernando Bersano Madryn Aktiv 122 / 112 40% 1 07.10.2026 -
Matías Contrera Hrvatski Dragovoljac Aktiv 103 / 109 40% 1 06.10.2026 -
Mauro Osores San Martín SJ Aktiv 108 / 119 40% 1 06.10.2026 -
Fernando Miranda Colegiales Aktiv 101 / 96 40% 1 04.10.2026 -
Facundo Di Biasi Gimnasia La Plata Aktiv 129 / 123 40% 1 30.09.2026 -
Gonzalo Flores Almirante Brown Aktiv 122 / 110 40% 1 30.09.2026 -
Tomás Castro Ponce Atlanta Aktiv 109 / 120 40% 1 28.09.2026 -
Elias Manoel Tijuana Aktiv 101 / 117 40% 1 22.09.2026 -
Cristopher Rodríguez Estudiantes de Merida Aktiv 113 / 96 40% 2 20.09.2026 -
Lautaro Pertusatti River Plate Aktiv 92 / 96 40% 2 20.09.2026 -
Mauricio Isais Pachuca Aktiv 111 / 118 40% 2 19.09.2026 -
Julián Brea Cobresal Aktiv 108 / 90 40% 1 18.09.2026 -
Pablo Monroy Pumas UNAM Aktiv 127 / 129 40% 4 16.09.2026 -
Sebastián Pereira Union Espanola Aktiv 108 / 102 40% 1 16.09.2026 -
Diego Hernández Aguilas Doradas Aktiv 127 / 115 40% 1 15.09.2026 -
Alejo Cruz Juventud Aktiv 112 / 119 40% 1 15.09.2026 -
Franco González Penarol Aktiv 103 / 124 40% 1 15.09.2026 -
David Morosini Juventud Aktiv 95 / 113 40% 1 13.09.2026 -
Nicolás Fernandez Universidad de Chile Aktiv 105 / 94 40% 3 12.09.2026 -
Abraham Bahachille Carabobo Aktiv 92 / 91 40% 1 11.09.2026 -
Joaquín Trasante Danubio Aktiv 99 / 109 40% 1 11.09.2026 -
Agustín Maidana San Marcos de Arica Aktiv 114 / 96 40% 3 10.09.2026 -
Bruno Jáuregui Union Espanola Aktiv 92 / 97 40% 1 10.09.2026 -
Vicente Durán San Luis Aktiv 93 / 94 40% 1 09.09.2026 -
Raimundo Rebolledo Union La Calera Aktiv 96 / 101 40% 1 08.09.2026 -
Jorge Rodríguez Atlas Aktiv 93 / 108 40% 2 07.09.2026 -
Yolfran Caricote Metropolitanos Aktiv 109 / 97 40% 1 07.09.2026 -
Miguel Brizuela O'Higgins Aktiv 123 / 107 40% 3 06.09.2026 -
Iván Rozas Antofagasta Aktiv 116 / 99 40% 1 06.09.2026 -
Ramiro Ruiz Rodríguez Atlético Tucumán Aktiv 113 / 113 40% 1 06.09.2026 -
Martín Villarroel Santiago Wanderers Aktiv 89 / 91 40% 1 05.09.2026 -
Nahuel Brunet Godoy Cruz Aktiv 112 / 112 40% 2 04.09.2026 -
Alejandro Rincon Llaneros Aktiv 114 / 96 40% 1 04.09.2026 -
Cristhián Rivas Estudiantes de Merida Aktiv 126 / 110 40% 1 01.09.2026 -
Tomás Galván River Plate Aktiv 120 / 137 40% 2 31.08.2026 -
Martín Ormeño Union Espanola Aktiv 95 / 104 40% 1 31.08.2026 -
Juan Camilo Pérez Carabobo Aktiv 124 / 120 40% 1 31.08.2026 -
Bruno Hernández Cerro Largo Aktiv 105 / 106 40% 1 31.08.2026 -
Alexis Gutiérrez Club America Aktiv 126 / 121 40% 2 28.08.2026 -
Enzo Ferrario Audax Italiano Aktiv 89 / 96 40% 1 26.08.2026 -
Yeferson Rincon Atletico Venezuela Aktiv 88 / 111 40% 1 25.08.2026 -
Edgar Zaldívar Atlas Aktiv 107 / 115 40% 1 24.08.2026 -
Delvin Alfonzo Deportivo Tachira Aktiv 110 / 108 40% 1 23.08.2026 -
Carlos Adrián Sánchez Pachuca Aktiv 108 / 104 40% 1 23.08.2026 -
Walter Tandazo Melgar Aktiv 104 / 104 40% 1 20.08.2026 -
Tomás Ángel FC Midtjylland Aktiv 114 / 133 40% 1 19.08.2026 -
Jorge Berlanga Pachuca Aktiv 104 / 118 40% 1 13.08.2026 -
Carlos Faya Deportivo La Guaira Aktiv 109 / 121 40% 2 12.08.2026 -
Santiago Simón Toluca Aktiv 120 / 113 40% 1 11.08.2026 -
Lucas González Nacional Aktiv 114 / 99 40% 1 07.08.2026 -
Valentín Fascendini Talleres Aktiv 129 / 127 40% 1 05.08.2026 -
Pablo Bennevendo Pumas UNAM Aktiv 109 / 109 40% 1 03.08.2026 -